SCP
0 0 0 0 0 0 0 0 0 0 0 0 0 0 0 0 0 0 0 0 0 0 0 0 0 0 0 0 0 0 0 0 0 0 0 0 0 0 0 0 0 0 0
0 0 0 0 0 0 0 0 0 0 0 0 0 0 0 0 0 0 0 0 0 0 0 0 0 0 0 0 0 0 0 0 0 0 0 0 0 0 0 0 0 0 0
0 0 0 0 0 0 0 0 0 0 0 0 0 0 0 0 0 0 0 0 0 0 0 0 0 0 0 0 0 0 0 0 0 0 0 0 0 0 0 0 0 0 0
0 0 0 0 0 0 0 0 0 0 0 0 0 0 0 0 0 0 0 0 0 0 0 0 0 0 0 0 0 0 0 0 0 0 0 0 0 0 0 0 0 0 0
0 0 0 0 0 0 0 0 0 0 0 0 0 0 0 0 0 0 0 0 0 0 0 0 0 0 0 0 0 0 0 0 0 0 0 0 0 0 0 0 0 0 0
0 0 0 0 0 0 0 0 0 0 0 0 0 0 0 0 0 0 0 0 0 0 0 0 0 0 0 0 0 0 0 0 0 0 0 0 0 0 0 0 0 0 0
0 0 0 0 0 0 0 0 0 0 0 0 0 0 0 0 0 0 0 0 0 0 0 0 0 0 0 0 0 0 0 0 0 0 0 0 0 0 0 0 0 0 0
0 0 0 0 0 0 0 0 0 0 0 0 0 0 0 0 0 0 0 0 0 0 0 0 0 0 0 0 0 0 0 0 0 0 0 0 0 0 0 0 0 0 0
0 0 0 0 0 0 0 0 0 0 0 0 0 0 0 0 0 0 0 0 0 0 0 0 0 0 0 0 0 0 0 0 0 0 0 0 0 0 0 0 0 0 0
0 0 0 0 0 0 0 0 0 0 0 0 0 0 0 0 0 -0 0 0 0 0 0 0 0 0 0 0 0 0 0 0 0 0 0 0 0 0 0 0 0 0 0
0 0 0 0 0 0 0 0 0 0 0 0 0 0 0 0 0 0 -0 0 0 0 0 0 0 0 0 0 0 0 0 0 0 0 0 0 0 0 0 0 0 0 0
0 0 0 0 0 0 0 0 0 0 0 0 0 0 0 0 0 0 0 0 0 0 0 0 0 0 0 0 0 0 0 0 0 0 0 0 0 0 0 0 0 0 0
0 0 0 0 0 0 0 0 0 0 0 0 0 0 0 0 0 0 0 0 0 0 0 0 0 0 0 0 0 0 0 0 0 0 0 0 0 0 0 0 0 0 0
0 0 0 0 0 0 0 0 0 0 0 0 0 0 0 0 0 0 0 0 0 0 0 0 0 0 0 0 0 0 0 0 0 0 0 0 0 0 0 0 0 0 0
0 0 0 0 0 0 0 0 0 0 0 0 0 0 0 0 0 0 0 0 0 0 0 0 0 0 0 0 0 0 0 0 0 0 0 0 0 0 0 0 0 0 0
0 0 0 0 0 0 0 0 0 0 0 0 0 0 0 0 0 0 0 0 0 0 0 0 0 0 0 0 0 0 0 0 -0 -0 0 0 0 0 0 0 0 0 0
0 0 0 0 0 0 0 0 0 0 0 0 0 0 0 0 0 0 0 0 0 0 0 0 0 0 0 0 0 0 0 0 0 0 0 0 0 0 0 0 0 0 0
0 0 0 0 0 0 0 0 0 0 0 0 0 0 0 0 0 0 0 0 0 0 0 0 0 0 0 0 0 0 0 0 0 0 0 0 0 0 0 0 0 0 0
0 0 0 0 0 0 0 0 0 0 0 0 0 0 0 0 0 0 0 0 0 0 0 0 0 0 0 0 0 0 0 0 0 0 0 0 0 0 0 0 0 0 0
0 0 0 0 0 0 0 0 0 0 0 0 0 0 0 0 0 0 0 0 0 0 0 0 0 0 0 0 0 0 0 0 0 0 0 0 0 0 0 0 0 0 0
0 0 0 0 0 0 0 0 0 0 0 0 0 0 0 0 0 0 0 0 0 0 0 0 0 0 0 0 0 0 0 0 0 0 0 0 0 0 0 0 0 0 0
0 0 0 0 0 0 0 0 0 0 0 0 0 0 0 0 0 0 0 0 0 0 0 0 0 0 0 0 0 0 0 0 0 0 0 0 0 0 0 0 0 0 0
0 0 0 0 0 0 0 0 0 0 0 0 0 0 0 0 0 0 0 0 0 0 0 0 0 0 0 0 0 0 0 0 0 0 0 0 0 0 0 0 0 0 0
0 0 0 0 0 0 0 0 0 0 0 0 0 0 0 0 0 0 0 0 0 0 0 0 0 0 0 0 0 0 0 0 0 0 0 0 0 0 0 0 0 0 0
0 0 0 0 0 0 0 0 0 0 0 0 0 0 0 0 0 0 0 0 0 0 0 0 0 0 0 0 0 0 0 0 0 0 0 0 0 0 0 0 0 0 0
0 0 0 0 0 0 0 0 0 0 0 0 0 0 0 0 0 0 0 0 0 0 0 0 0 0 0 0 0 0 0 0 0 0 0 0 0 0 0 0 0 0 0
Wind_Speed
3 2 2 2 2 2 2 1 1 2 2 2 2 2 3 3 4 4 3 7 7 7 7 6 6 6 6 6 6 6 6 6 6 6 7 7 7 7 7 8 7 8 8
3 3 2 2 2 2 1 1 2 2 1 2 2 3 3 3 3 4 4 4 6 6 6 6 5 5 5 5 5 5 5 5 5 5 6 6 6 6 6 7 7 7 7
3 3 2 2 1 2 2 2 1 2 2 2 3 3 2 3 3 3 3 3 3 5 6 6 5 5 4 4 4 4 4 5 5 5 5 5 5 5 6 6 6 7 7
3 3 2 2 2 2 2 2 1 2 2 2 2 2 2 2 2 3 3 2 2 2 3 5 4 4 3 3 3 3 3 4 4 4 4 4 4 4 5 5 6 6 6
4 3 3 2 2 2 1 2 2 2 2 3 2 2 2 2 1 2 2 3 2 3 2 3 4 3 3 3 3 2 2 3 3 3 3 3 4 4 4 4 5 5 6
4 3 3 3 2 2 2 2 2 2 2 2 3 3 2 1 1 2 2 2 2 2 2 2 2 2 2 2 2 2 1 2 2 3 3 3 3 4 4 4 4 5 5
3 3 3 3 2 2 2 3 2 3 3 2 3 2 2 2 2 1 1 1 2 2 2 2 1 1 1 1 1 1 1 1 2 2 3 3 3 4 4 4 4 5 5
3 3 4 3 3 2 2 2 3 2 2 2 2 2 1 1 1 0 1 1 1 1 1 1 1 1 1 1 0 1 1 1 2 2 2 3 4 4 4 4 5 5 6
3 3 3 3 3 3 3 3 3 3 3 2 2 3 3 2 1 0 1 1 1 1 0 1 0 0 1 1 1 1 1 2 2 3 3 3 4 5 5 5 5 6 6
3 4 4 3 3 3 3 3 3 2 4 3 1 1 2 2 3 1 1 1 1 1 0 0 0 0 0 1 1 1 1 2 3 4 4 4 5 5 5 5 6 6 7
3 4 4 4 3 3 3 3 3 3 3 3 2 1 1 1 1 2 2 1 1 1 1 0 1 1 1 1 1 1 1 2 3 4 5 5 5 6 6 6 6 7 7
3 4 4 4 4 3 4 3 3 3 3 3 2 2 2 2 2 2 2 2 2 2 1 1 1 1 1 1 1 1 0 2 4 5 5 5 5 6 6 7 7 8 8
3 4 4 4 4 3 4 3 3 3 3 3 2 2 1 1 1 1 2 2 1 1 1 1 2 1 1 1 1 1 2 2 4 5 5 5 6 6 6 7 7 8 8
4 5 4 4 4 4 4 4 3 3 3 3 3 3 2 1 1 2 2 3 1 1 1 2 1 1 0 1 1 2 2 2 4 5 5 5 6 6 6 7 8 9 9
4 5 5 4 4 4 4 4 3 3 3 3 3 3 2 1 1 1 2 3 3 2 3 3 1 1 1 1 2 2 2 3 4 4 5 5 6 6 6 7 8 8 9
5 6 5 5 5 4 4 4 3 4 4 3 3 3 3 2 2 2 2 2 2 3 3 2 2 1 1 1 3 2 2 4 5 5 5 5 5 6 6 7 8 9 9
5 6 6 5 5 4 4 4 4 4 4 4 3 4 4 3 2 2 2 2 2 2 2 2 1 1 1 2 2 2 2 2 2 5 6 6 6 6 7 8 8 9 10
5 5 5 5 5 4 4 5 5 5 5 5 5 4 4 3 3 2 2 3 2 2 3 3 2 1 2 2 2 2 2 2 2 5 6 6 7 7 8 8 8 9 10
5 5 5 5 5 5 5 4 4 4 4 5 5 5 4 4 4 2 3 3 2 2 2 2 2 2 2 1 1 2 2 2 3 4 6 6 7 8 8 9 9 9 10
4 4 4 4 4 4 4 4 4 4 3 3 4 4 4 5 5 4 3 3 3 2 2 2 2 2 1 1 1 2 2 2 2 3 4 5 7 9 9 10 10 10 10
4 4 4 3 3 3 4 4 4 4 4 3 3 3 4 5 5 4 3 3 3 3 2 2 2 2 2 2 3 2 3 3 3 2 3 3 3 4 5 7 9 9 10
3 3 4 4 3 3 4 5 4 4 4 4 4 4 4 4 5 5 4 4 4 4 4 3 3 3 4 3 2 2 2 2 4 2 2 4 3 4 4 4 8 10 11
3 3 3 3 3 4 5 5 5 3 3 3 3 3 3 3 4 4 3 3 3 4 5 4 4 4 4 4 3 3 3 3 4 3 2 5 3 4 4 5 10 11 11
3 3 3 3 3 3 5 5 4 3 3 3 3 3 4 3 4 4 3 2 2 3 4 3 4 4 3 3 3 4 3 3 3 2 2 4 4 4 5 4 9 11 11
2 2 2 3 3 3 5 5 4 2 2 2 2 2 3 3 4 5 4 3 3 2 2 2 2 3 4 4 3 1 1 2 4 3 1 2 3 5 5 4 6 9 11
2 2 2 2 2 2 4 5 4 2 2 2 1 1 3 3 4 4 3 3 3 3 2 1 1 2 2 2 2 2 2 2 3 3 2 1 3 3 4 3 3 3 5
Wind_Direction
133 128 124 123 125 128 144 150 143 141 137 109 102 105 98 87 90 89 88 90 98 105 108 102 96 97 95 90 84 81 78 76 69 63 59 56 52 49 47 44 40 37 36
127 128 123 121 125 126 125 128 123 129 122 105 101 97 94 91 97 110 112 96 91 101 106 103 96 95 91 89 87 82 78 71 66 59 55 53 52 48 42 38 36 34 34
128 130 128 130 136 130 124 106 104 98 100 94 92 86 84 82 88 103 112 115 103 95 105 106 99 95 94 92 92 86 80 70 59 54 52 50 47 42 38 35 31 29 28
135 130 132 142 146 132 127 125 123 110 102 97 89 77 75 79 82 95 100 112 119 113 103 105 104 100 100 101 95 85 77 67 52 44 41 40 39 36 33 32 25 22 18
145 137 139 152 148 130 130 146 117 123 118 109 107 89 68 66 74 89 103 103 107 114 112 104 101 101 98 107 102 92 82 65 46 32 27 28 24 23 25 18 12 13 10
153 143 146 154 147 136 139 139 135 121 117 121 107 85 70 58 58 71 88 96 100 112 111 113 111 101 102 101 93 86 90 66 32 16 4 8 11 9 10 2 3 3 1
157 150 151 153 156 154 158 149 138 132 126 114 100 81 40 50 73 68 68 93 96 103 109 117 121 115 125 111 99 66 38 28 360 345 342 351 357 355 357 356 349 348 346
163 158 154 160 156 150 152 148 137 135 142 133 130 128 121 7 334 65 82 106 113 93 109 116 127 143 130 136 136 95 54 26 1 354 348 348 346 343 343 347 345 340 338
166 158 157 155 155 155 162 160 158 146 161 173 147 145 152 188 174 279 229 152 145 130 101 95 137 166 139 136 132 84 37 10 336 323 324 327 329 326 331 335 335 335 332
162 162 158 159 159 157 166 173 162 155 155 174 189 155 142 141 143 168 276 251 184 169 180 150 99 328 100 114 121 93 43 351 308 303 306 312 317 316 319 326 329 327 325
168 169 160 164 166 164 168 170 161 165 163 170 173 163 118 72 121 152 203 244 279 259 227 216 207 200 185 144 152 158 5 318 298 296 300 303 307 311 315 319 321 321 321
171 172 165 169 170 168 169 173 175 171 169 167 167 158 156 161 185 163 172 193 224 246 249 250 237 211 189 173 167 135 297 299 298 295 296 299 304 310 314 315 315 315 314
173 181 174 174 172 171 166 164 169 175 168 166 172 176 165 171 166 153 150 169 192 235 220 241 237 217 195 161 161 213 237 276 292 295 296 303 311 315 313 310 310 312 313
179 180 177 175 170 169 167 165 169 175 163 165 170 165 159 174 159 159 160 156 162 241 238 241 252 229 206 178 207 237 218 259 285 292 298 308 316 317 313 310 310 311 311
173 175 173 171 170 169 170 168 172 175 165 168 172 168 164 170 161 154 149 158 164 193 232 229 223 229 234 219 224 224 219 250 272 284 295 305 308 308 307 309 308 307 308
168 168 170 170 168 168 172 169 169 172 165 170 168 167 174 176 169 165 167 181 179 184 219 222 219 237 246 259 247 236 228 259 268 275 283 289 292 297 300 299 299 301 301
165 168 169 170 166 168 171 166 167 170 169 170 175 175 182 178 171 178 178 184 191 178 211 248 243 252 241 251 259 248 241 228 246 267 277 282 285 290 294 296 295 297 298
168 169 166 166 167 166 168 171 174 176 174 177 181 177 186 179 177 185 188 197 200 195 192 226 245 253 250 238 247 255 269 266 248 272 278 282 284 288 292 293 293 294 295
165 166 163 168 169 167 171 173 174 177 179 181 182 183 186 176 188 192 194 200 203 207 191 202 239 251 265 252 269 274 268 269 269 271 275 277 280 285 289 292 293 292 292
165 164 165 168 167 170 171 169 169 171 178 184 183 183 186 186 192 190 194 199 194 190 185 194 228 254 260 262 254 264 276 263 269 280 276 281 280 283 285 286 286 287 288
162 157 157 162 164 170 171 169 176 178 180 183 180 181 186 189 195 197 199 200 195 194 195 201 226 247 253 245 244 243 261 277 275 261 267 271 272 269 270 276 281 282 285
153 153 160 166 171 173 166 173 178 178 181 183 182 182 186 189 191 195 204 211 210 205 208 214 231 233 243 244 245 251 259 285 281 259 263 278 266 267 266 258 279 287 287
153 153 162 166 170 167 171 179 184 183 181 184 185 183 187 189 189 183 193 208 227 240 236 225 225 233 236 233 230 248 246 256 270 273 278 280 270 269 271 282 284 285 287
142 147 161 166 166 170 174 177 182 178 176 181 185 189 190 187 190 185 177 186 212 234 239 232 224 233 238 228 222 238 245 272 286 271 250 276 285 282 290 279 281 282 287
128 141 149 153 159 171 176 174 171 164 159 170 186 193 191 184 185 186 181 189 206 232 245 241 259 266 272 264 249 238 247 271 286 282 259 263 286 298 290 278 276 285 292
124 132 130 141 153 158 165 166 166 163 163 165 171 189 196 192 191 197 198 190 202 223 212 225 253 279 271 257 258 222 219 249 277 281 269 276 293 316 304 281 270 281 289